New Philadelphia, OH

11:01 AM EDT on April 28, 2017 (GMT -0400)
Clever

Weather History for KPHD - November, 2013

Change the Weather History Date:

Monday, November 11, 2013

  Actual Average Record
Temperature  
Mean Temperature 38 °F 45 °F  
Max Temperature 49 °F 55 °F 73 °F (1998)
Min Temperature 26 °F 35 °F 17 °F (1973)
Degree Days  
Heating Degree Days 27 20  
Month to date heating degree days 213 206  
Since 1 July heating degree days 663 705  
Cooling Degree Days 0 0  
Month to date cooling degree days 0 0  
Year to date cooling degree days 755 697  
Moisture  
Dew Point 29 °F    
Average Humidity 67    
Maximum Humidity 92    
Minimum Humidity 42    
Precipitation  
Precipitation 0.10 in 0.09 in 1.19 in (1985)
Month to date precipitation 1.37 1.09  
Year to date precipitation 29.38 34.05  
Sea Level Pressure  
Sea Level Pressure 30.18 in    
Wind  
Wind Speed 6 mph (West)    
Max Wind Speed 17 mph    
Max Gust Speed 24 mph    
Visibility 8 miles    
Events Rain , Snow    
T = Trace of Precipitation, MM = Missing Value Source: NWS Daily Summary

Daily Weather History Graph

Daily Weather History Graph

Search for Another Location

Airport or City:

Trip Planner

Search our weather history database for the weather conditions in past years. The results will help you decide how hot, cold, wet, or windy it might be!

Date:

Astronomy

Nov. 11, 2013 Rise Set
Actual Time 7:07 AM EST 5:11 PM EST
Civil Twilight 6:38 AM EST 5:40 PM EST
Nautical Twilight 6:05 AM EST 6:13 PM EST
Astronomical Twilight 5:33 AM EST 6:45 PM EST
Moon 1:52 PM EST (11/11) 12:49 AM EST (11/11)
Length of Visible Light 11h 01m
Length of Day
10h 03m
Waxing Gibbous, 66% of the Moon is Illuminated
Nov 11
Waxing Gibbous
Nov 17
Full
Nov 25
Last Quarter
Dec 2
New
Dec 9
First Quarter

Hourly Weather History & Observations

Time (EST) Temp. Windchill Dew Point Humidity Pressure Visibility Wind Dir Wind Speed Gust Speed Precip Events Conditions
12:53 AM 27.0 °F - 24.1 °F 89% 30.32 in 10.0 mi Calm Calm - N/A   Clear
1:53 AM 27.0 °F - 23.0 °F 85% 30.31 in 10.0 mi Calm Calm - N/A   Clear
2:53 AM 28.0 °F - 24.1 °F 85% 30.30 in 10.0 mi Calm Calm - N/A   Clear
4:53 AM 30.0 °F 26.5 °F 27.0 °F 88% 30.30 in 10.0 mi SE 3.5 mph - N/A   Overcast
5:53 AM 30.9 °F 26.2 °F 28.0 °F 89% 30.29 in 10.0 mi SE 4.6 mph - N/A   Overcast
6:53 AM 33.1 °F 26.9 °F 28.9 °F 85% 30.27 in 10.0 mi SE 6.9 mph - N/A   Overcast
7:53 AM 34.0 °F - 28.9 °F 82% 30.30 in 10.0 mi Calm Calm - N/A   Overcast
8:53 AM 37.0 °F 32.4 °F 30.0 °F 76% 30.26 in 10.0 mi SE 5.8 mph - N/A   Overcast
9:53 AM 41.0 °F 35.2 °F 28.9 °F 62% 30.25 in 10.0 mi SW 9.2 mph - N/A   Scattered Clouds
10:53 AM 45.0 °F 40.1 °F 28.9 °F 53% 30.21 in 10.0 mi SW 9.2 mph - N/A   Overcast
11:53 AM 46.9 °F - 28.0 °F 48% 30.17 in 10.0 mi WSW 6.9 mph - N/A   Overcast
12:53 PM 48.0 °F - 27.0 °F 44% 30.14 in 10.0 mi SW 9.2 mph 19.6 mph N/A   Overcast
1:53 PM 48.0 °F - 26.1 °F 42% 30.13 in 10.0 mi SW 8.1 mph - N/A   Overcast
2:53 PM 46.9 °F - 26.1 °F 44% 30.11 in 10.0 mi SW 4.6 mph - N/A   Overcast
3:53 PM 48.0 °F - 27.0 °F 44% 30.08 in 10.0 mi SSW 8.1 mph - N/A   Overcast
4:53 PM 48.0 °F - 26.1 °F 42% 30.07 in 10.0 mi Calm Calm - N/A   Overcast
5:53 PM 48.0 °F - 27.0 °F 44% 30.07 in 10.0 mi Variable 3.5 mph - 0.00 in   Overcast
6:53 PM 46.9 °F - 28.0 °F 48% 30.08 in 10.0 mi SW 4.6 mph - N/A   Overcast
7:53 PM 48.0 °F - 30.9 °F 52% 30.09 in 10.0 mi WNW 10.4 mph 16.1 mph 0.00 in   Overcast
8:46 PM 42.8 °F 38.0 °F 37.4 °F 81% 30.09 in 6.0 mi NNW 8.1 mph - 0.00 in Rain Light Rain
8:53 PM 41.0 °F 37.1 °F 37.0 °F 86% 30.11 in 5.0 mi NW 5.8 mph - 0.01 in Rain Light Rain
9:17 PM 41.0 °F 35.2 °F 37.4 °F 87% 30.10 in 4.0 mi NNW 9.2 mph - 0.02 in Rain Rain
9:46 PM 39.2 °F 31.6 °F 35.6 °F 87% 30.12 in 5.0 mi NNW 12.7 mph - 0.04 in Rain Light Rain
9:53 PM 39.0 °F 32.3 °F 35.1 °F 86% 30.14 in 5.0 mi NNW 10.4 mph 18.4 mph 0.04 in Rain Light Rain
10:53 PM 35.1 °F 25.9 °F 30.9 °F 85% 30.18 in 5.0 mi North 13.8 mph 18.4 mph 0.04 in Snow Light Snow
11:18 PM 33.8 °F 28.6 °F 30.2 °F 87% 30.16 in 2.0 mi NNW 5.8 mph - 0.01 in Snow Light Snow
11:26 PM 33.8 °F 27.7 °F 30.2 °F 87% 30.16 in 1.5 mi NNW 6.9 mph - 0.01 in Snow Light Snow
11:53 PM 33.1 °F 26.9 °F 30.0 °F 89% 30.19 in 1.2 mi NNW 6.9 mph - 0.01 in Snow Light Snow